Simultaneous Nadir Overpasses (SNOs) Predictions

Prediction of SNOs between GOES-15 and METOP-A Satellite Orbit:

Table of predicted SNOs for the next 14.0 days since TLE Epoch: 7/5/2013
<
Index Date Time (GOES-15) GOES-15 Lat,Lon METOP-A Lat,Lon Distance(km) Time Diff (sec)
1 07/05/2013 18:40:58 -0.05,-135.16 0.48,-137.53 270.44 80
2 07/06/2013 18:17:39 -0.07,-135.18 -0.64,-132.54 300.53 80
3 07/08/2013 06:39:22 0.04,-135.20 -0.36,-137.15 220.93 80
4 07/09/2013 06:16:03 0.07,-135.22 0.76,-132.16 349.62 80
5 07/10/2013 18:37:36 -0.04,-135.27 0.28,-136.71 164.91 80
6 07/11/2013 18:14:17 -0.06,-135.28 -0.84,-131.72 405.44 80
7 07/13/2013 06:35:58 0.04,-135.30 -0.21,-136.32 116.71 80
8 07/14/2013 06:12:41 0.06,-135.31 0.97,-131.34 453.20 80
9 07/15/2013 18:34:12
